RH
61 56 52 49 47 44 42 41 40 40 42 43 45 47 50 54 56 59 61 63 64 65 65 64 63 61 60 58 57 57 58 60 62 64 65 68 70 71 71 71 73 74 75 77 79 80 82 83 85 86 84 82 83 85 84 80 81 83 85 86 85 82 79 79 79 79 78 76 74 75 80 85 85 84 82 78 74 72 71 74 77 79 80 81 81 82
60 56 52 50 48 46 45 44 43 43 44 47 50 53 56 59 61 62 63 64 64 64 64 63 62 61 61 61 61 62 64 66 68 69 69 69 68 68 68 70 71 72 73 75 77 79 81 81 82 83 82 83 83 83 83 84 85 85 86 85 82 79 78 79 79 79 78 78 77 78 80 80 80 79 78 77 77 77 78 79 80 82 83 83 83 84
60 57 54 51 49 48 48 48 47 47 47 50 54 57 59 60 62 63 64 65 65 65 64 63 62 62 62 63 63 64 66 67 68 69 69 68 67 68 69 71 72 73 73 75 77 79 81 81 81 81 82 83 83 84 84 84 85 85 85 82 80 79 79 79 80 81 81 81 82 82 82 81 81 80 80 80 81 81 81 81 81 81 83 83 84 85
60 57 54 50 48 48 50 51 52 53 53 55 58 60 62 63 63 65 66 66 66 65 64 64 63 64 64 64 64 65 66 67 68 69 69 68 69 70 72 73 74 75 76 78 80 81 82 82 82 81 82 83 84 85 84 84 85 86 84 82 81 80 81 82 83 84 84 84 84 84 83 84 84 83 82 82 81 81 80 80 80 80 80 80 80 80
59 56 53 50 49 49 50 52 54 56 58 60 62 64 65 66 67 67 68 68 68 67 67 67 66 66 66 66 66 67 68 69 70 70 71 72 72 73 74 74 75 76 77 79 80 81 81 81 81 81 82 83 84 85 85 86 86 85 83 82 82 82 83 84 85 86 86 86 86 85 84 83 82 81 79 79 79 80 82 82 81 81 79 78 77 76
59 57 55 54 53 52 53 54 56 58 60 63 65 67 68 69 70 70 70 70 70 70 70 69 69 69 68 68 68 68 69 70 70 71 71 70 70 70 70 70 72 73 75 77 78 79 81 81 81 81 82 83 84 85 86 86 85 83 82 81 82 83 84 86 87 88 88 87 85 84 81 80 80 80 80 80 81 82 82 82 82 81 79 80 81 83
61 60 59 57 56 55 54 54 55 58 61 64 66 69 71 72 72 72 72 72 73 73 73 72 72 71 70 69 68 67 66 65 64 63 62 61 61 61 62 65 67 70 71 73 75 78 80 82 83 84 84 85 86 86 86 85 83 82 81 81 82 84 86 88 89 88 88 84 83 82 81 81 82 83 83 83 83 83 83 83 84 85 86 87 88 89
64 62 60 58 56 54 53 53 54 57 61 65 68 70 72 73 73 73 73 74 74 74 74 74 73 72 71 68 66 63 61 59 56 55 54 54 55 57 60 63 66 69 71 72 74 77 80 83 84 85 85 85 85 86 85 85 84 83 82 82 83 86 88 88 88 86 83 81 82 84 85 85 85 85 84 83 83 84 85 84 85 87 89 88 86 82
66 63 61 59 58 56 55 55 55 58 62 65 69 71 73 74 74 73 73 73 73 74 73 73 73 71 69 66 64 61 58 56 54 53 54 55 57 60 63 66 68 71 73 75 77 79 82 83 86 87 85 84 84 85 85 85 84 83 84 84 85 87 88 87 85 83 81 82 84 85 86 85 84 83 83 84 85 86 85 83 82 82 83 80 78 76
69 67 65 63 62 61 60 59 59 61 63 68 72 76 80 81 80 79 77 77 77 78 79 78 76 73 69 65 62 59 56 54 54 55 57 59 61 63 65 68 70 72 75 77 80 82 84 85 86 87 86 85 84 84 82 81 82 83 85 86 87 86 84 82 81 82 82 85 86 86 84 82 82 81 81 83 84 83 81 80 79 79 79 78 79 79
72 70 68 67 65 64 63 64 65 68 72 77 82 85 89 90 90 89 88 87 88 88 88 84 79 74 68 63 60 57 55 55 56 58 60 61 63 64 66 68 70 72 74 76 78 80 82 83 85 86 86 84 82 79 78 79 81 83 84 84 84 83 82 80 81 84 85 86 86 85 83 81 81 80 78 79 79 79 79 79 80 80 81 82 83 83
76 75 73 72 71 71 72 74 78 82 86 89 92 93 92 95 96 98 98 97 96 92 87 80 74 68 63 59 57 57 58 59 60 62 62 63 63 64 65 67 69 71 73 74 74 75 77 79 81 84 83 81 79 78 79 80 81 82 82 82 81 82 83 84 85 85 85 84 84 83 81 80 79 78 77 78 79 80 81 82 83 84 85 85 85 85
84 84 84 83 84 84 86 89 91 94 95 96 97 98 97 98 98 98 98 96 90 84 77 70 64 60 57 57 58 60 62 63 64 64 64 63 63 63 65 68 71 72 73 72 71 71 71 73 75 77 79 79 79 80 81 82 82 82 82 83 83 83 84 85 85 84 84 82 82 82 81 80 79 78 78 79 81 83 84 85 85 85 85 85 86 87
94 94 94 94 94 94 94 96 97 98 99 99 99 99 98 96 93 91 88 83 77 71 67 63 60 58 57 60 62 64 66 66 67 67 66 65 65 66 68 70 72 73 72 71 71 70 70 71 72 73 75 77 78 79 79 80 80 80 80 82 83 83 84 84 84 83 81 81 81 81 79 78 78 78 80 82 85 86 85 85 84 84 85 85 87 89
97 96 94 95 94 93 91 92 94 96 96 95 93 90 87 85 82 80 78 75 72 70 68 66 65 64 65 66 68 69 68 68 69 70 71 72 73 74 74 73 73 73 73 72 71 71 71 72 74 75 77 76 76 75 75 76 77 78 79 80 81 82 83 84 83 82 80 81 81 82 82 80 80 81 84 86 87 87 85 85 85 87 89 89 91 94
94 94 93 92 90 88 85 85 86 87 87 84 82 80 79 77 77 77 78 80 82 83 83 82 80 79 79 79 78 77 76 79 81 83 86 87 86 85 84 85 84 81 77 74 72 73 74 75 78 80 82 79 77 76 75 75 76 77 80 80 82 83 81 81 81 81 81 82 82 82 82 82 82 84 86 87 88 89 88 88 88 89 91 94 97 99
91 90 90 89 87 85 81 78 78 79 79 78 79 80 81 84 87 91 95 97 97 97 97 96 93 89 86 85 84 85 88 93 96 98 99 98 95 93 94 96 96 92 83 77 75 75 78 79 81 84 85 82 80 78 77 74 74 76 80 81 83 83 79 79 80 81 82 82 81 81 82 83 84 86 90 88 89 92 93 92 90 89 91 97 99 99
87 85 84 82 81 80 78 77 78 80 85 89 92 96 98 98 99 99 99 98 98 96 94 92 89 86 82 86 86 86 89 93 96 98 96 95 91 88 87 92 94 90 82 78 78 79 80 82 84 87 87 84 82 79 76 76 77 79 82 83 84 83 79 78 79 81 81 80 80 80 82 83 85 88 91 90 91 91 91 91 89 89 94 98 98 96
84 83 83 82 83 84 86 89 93 96 98 98 98 98 98 96 95 94 93 93 93 91 89 85 83 82 82 83 83 83 85 87 92 95 92 90 89 86 82 86 86 83 79 79 80 82 83 85 86 87 86 83 80 78 78 81 83 84 84 84 82 80 77 78 79 80 80 79 79 80 83 84 86 88 90 90 91 91 91 89 90 92 95 94 93 91
88 88 91 95 96 96 97 98 98 97 97 97 97 97 96 93 90 88 88 88 87 86 86 85 84 83 85 84 85 86 87 90 93 95 94 93 90 86 85 86 84 82 82 82 83 84 84 85 85 83 81 79 79 79 80 80 80 81 81 81 80 80 80 81 81 82 82 80 80 80 84 86 88 89 89 89 90 92 92 93 94 95 94 93 91 89
91 94 98 98 99 99 98 98 97 97 97 97 97 97 96 93 90 87 85 84 83 82 81 80 82 85 87 89 90 90 88 90 95 97 96 94 90 86 84 85 85 84 83 83 82 82 83 84 82 80 78 78 78 78 77 78 79 80 81 82 81 81 81 82 82 82 82 80 79 81 84 87 88 88 89 92 93 93 94 95 95 96 95 94 91 88
93 96 98 97 97 97 97 97 97 96 95 95 96 96 95 92 89 85 82 80 79 77 77 79 82 85 89 92 92 90 87 89 93 98 98 93 89 85 84 82 80 79 78 79 80 82 85 86 84 82 80 78 77 76 76 77 79 80 80 80 79 79 80 82 81 81 83 86 85 85 87 89 89 89 92 94 95 95 95 95 96 96 95 93 90 88
91 94 95 94 94 94 94 93 92 90 88 87 88 89 90 86 83 80 77 76 75 74 75 76 79 83 87 90 90 88 84 87 92 97 99 96 93 90 88 84 79 76 77 83 88 92 94 91 87 83 80 78 76 75 75 77 79 79 78 77 76 77 79 80 82 83 84 86 88 89 90 90 89 89 89 91 92 93 94 94 95 95 95 93 91 90
85 87 86 86 86 86 85 84 83 83 82 81 80 80 79 79 78 77 75 75 75 75 76 78 80 83 84 85 84 83 83 90 95 98 98 98 97 96 94 91 90 90 91 94 95 95 94 91 87 84 81 79 76 74 74 76 78 78 76 76 77 79 80 81 80 81 84 87 88 88 89 89 89 89 90 90 91 92 94 94 94 94 94 94 94 94
84 83 83 83 83 82 80 79 79 79 79 80 80 80 79 80 81 82 81 81 82 83 84 85 85 84 81 78 77 80 87 93 95 96 97 97 95 92 92 94 95 96 96 90 87 84 84 84 83 83 82 78 75 72 72 76 78 78 77 78 79 80 80 78 78 81 85 87 88 88 88 88 88 90 90 90 91 92 94 94 94 95 95 95 95 94
85 85 85 84 84 83 82 81 81 82 84 86 88 88 88 88 89 90 89 90 91 92 91 88 86 82 79 78 82 88 95 90 90 93 96 94 89 87 93 92 92 92 92 85 80 78 79 82 83 82 80 76 72 71 71 74 76 78 78 78 78 78 77 77 79 81 84 86 87 87 87 87 88 89 89 90 92 93 92 93 94 94 94 95 94 92
88 88 87 87 87 87 88 89 90 91 93 95 96 97 96 95 95 95 94 95 96 94 89 86 84 82 80 79 86 95 97 93 91 91 94 94 92 91 96 94 93 93 92 88 85 83 83 84 82 79 75 72 71 70 69 70 71 71 72 73 73 74 75 76 78 80 83 84 85 86 86 85 86 87 87 88 90 91 88 91 93 94 95 95 94 92
90 90 90 90 91 93 94 94 94 95 96 97 97 96 95 96 96 96 95 96 95 92 86 83 82 81 80 75 84 94 92 94 95 95 94 95 93 91 94 92 93 93 93 90 85 81 79 77 73 70 68 67 66 66 66 66 66 66 67 68 70 71 72 74 77 79 80 82 82 83 84 84 84 84 85 86 88 88 88 89 91 93 94 95 95 94
90 90 92 92 94 95 94 91 91 92 94 96 96 96 95 95 96 96 97 97 95 91 85 82 80 79 79 72 76 83 83 89 93 95 93 92 88 86 88 87 88 89 89 86 80 74 70 68 65 64 63 63 62 61 61 61 61 62 64 65 67 69 70 73 76 78 79 81 81 81 81 81 81 81 83 84 85 87 88 89 90 93 94 95 96 96
88 90 91 93 93 92 88 86 87 91 94 95 96 97 97 96 96 97 97 96 95 91 86 82 80 78 77 73 71 71 73 82 89 93 92 88 84 82 82 82 82 83 83 80 76 71 67 64 63 63 62 61 60 58 58 58 59 61 62 64 66 68 71 73 76 78 79 79 79 79 79 79 79 80 81 82 84 86 88 89 92 94 95 95 96 96
89 91 93 93 91 87 84 87 91 94 95 96 96 96 96 96 96 96 96 95 94 92 87 84 80 77 75 73 71 71 71 78 85 88 87 82 79 77 78 77 75 74 74 74 73 71 69 65 63 61 60 59 57 57 57 58 60 62 63 65 67 70 72 74 76 77 78 78 77 77 77 77 78 79 80 82 84 87 88 91 93 95 96 96 96 96
91 92 92 92 90 89 90 93 95 95 94 93 93 93 92 93 94 95 94 94 93 92 89 85 80 77 74 71 70 70 71 75 80 84 85 80 75 72 71 70 68 66 65 66 67 68 69 64 61 58 56 55 55 55 56 59 62 64 66 68 70 71 73 74 76 76 76 76 76 75 76 76 78 79 81 84 86 88 89 92 94 96 96 96 96 95
92 92 90 92 92 92 94 95 94 92 90 89 89 89 88 88 89 90 90 89 89 90 88 84 80 76 73 70 68 66 65 69 76 83 87 84 78 72 69 68 66 64 63 62 62 62 63 61 58 56 55 55 56 57 58 62 65 67 69 71 72 73 73 75 75 76 76 76 75 75 75 76 78 80 83 86 87 89 90 93 95 96 96 95 95 95
89 88 87 88 89 90 91 90 89 88 86 85 86 86 86 85 85 86 86 84 84 84 82 82 81 79 76 72 69 66 64 68 75 84 91 90 86 79 75 71 68 66 65 64 63 62 61 60 59 59 58 59 59 59 61 65 68 70 71 72 73 74 75 76 77 77 77 76 75 74 74 76 78 81 83 85 87 88 91 93 94 93 92 92 92 92
85 83 83 85 86 87 87 87 87 86 84 83 84 84 85 84 83 83 84 83 82 80 79 80 81 81 81 77 74 71 70 72 79 87 93 94 92 88 83 77 73 71 70 69 68 66 65 64 64 64 64 63 63 63 64 68 71 72 73 73 74 76 77 78 79 79 78 76 75 75 76 78 80 83 84 86 87 89 91 91 90 89 88 88 88 89
80 80 82 84 85 85 85 85 85 84 83 82 81 81 82 82 82 82 82 81 80 79 78 79 80 81 81 81 80 78 77 79 84 90 95 94 94 93 89 85 81 79 78 76 74 72 71 70 69 68 68 67 67 67 69 72 74 75 75 75 76 78 79 79 79 78 78 76 76 76 78 81 84 86 87 87 88 89 89 88 87 86 85 85 86 87
79 80 82 84 84 84 83 83 82 82 81 79 77 76 76 77 78 78 77 76 76 75 75 75 75 76 77 78 78 79 79 82 86 91 95 95 94 94 93 91 90 88 85 82 81 79 78 75 74 72 71 71 71 72 74 75 76 76 76 77 78 79 79 78 78 78 77 77 78 79 82 85 88 89 89 88 88 87 86 85 84 84 84 84 85 86
79 80 81 83 83 83 82 81 80 79 77 75 73 72 72 73 72 71 70 70 71 71 72 71 71 71 72 72 74 75 78 82 86 90 94 94 94 94 94 94 93 93 92 90 88 86 84 81 79 77 75 74 74 75 77 77 76 76 76 77 78 78 77 77 78 78 78 79 80 83 85 88 89 90 90 88 87 85 84 83 83 83 83 84 85 85
80 81 81 81 80 79 79 77 76 74 72 70 69 70 71 69 68 67 66 66 67 69 70 70 70 70 71 70 70 72 76 79 84 89 92 94 94 95 95 95 95 94 94 94 93 92 90 87 85 83 81 80 79 79 78 78 78 78 79 79 77 76 76 78 79 79 79 81 83 85 88 89 90 90 89 87 86 85 84 83 83 83 83 84 84 85
79 79 79 78 76 76 75 73 71 69 67 65 65 66 68 68 68 68 65 66 67 68 69 69 70 71 70 68 67 68 71 76 82 87 91 93 94 95 95 95 95 95 95 94 94 94 93 91 89 88 86 85 85 83 81 80 80 81 82 81 79 77 78 80 80 80 81 83 85 87 89 89 89 88 87 86 86 85 85 84 84 84 84 85 85 86
77 76 75 72 71 71 70 68 66 65 63 62 62 64 67 69 70 70 69 69 69 69 70 71 72 72 70 67 66 67 71 75 80 85 88 91 94 95 96 96 96 96 96 95 94 94 93 92 92 90 88 89 88 86 82 81 81 83 84 83 81 81 81 81 81 81 82 84 86 87 88 89 88 88 87 87 87 86 85 84 83 83 84 85 86 87
73 72 70 68 67 66 66 64 63 62 61 62 63 65 67 69 71 73 73 72 72 72 73 74 75 73 71 68 68 69 72 74 78 82 85 88 91 93 95 96 96 96 96 96 95 93 91 91 91 91 91 91 89 86 82 81 82 82 83 82 82 82 80 80 80 82 83 85 86 87 88 88 88 88 88 88 87 86 84 83 82 83 83 84 86 87
69 68 66 65 64 64 63 63 63 63 62 63 64 66 68 70 72 74 74 74 74 75 76 76 76 74 72 70 70 71 73 75 77 80 84 86 88 88 90 93 95 96 96 96 95 93 91 90 89 88 87 87 86 85 84 83 82 80 79 81 82 82 80 80 81 83 85 86 87 87 88 88 88 89 89 88 86 84 83 82 82 82 83 84 86 88
68 67 66 65 64 64 65 65 65 65 64 65 66 67 68 70 72 73 74 75 76 77 77 77 76 74 72 71 71 72 73 75 78 80 82 85 87 87 88 89 91 93 95 96 96 95 93 91 90 89 87 85 83 82 82 81 79 77 77 79 81 83 84 84 84 85 86 87 87 88 88 89 89 89 89 86 84 83 83 83 83 83 84 86 88 90
70 69 68 67 67 68 68 68 68 67 66 66 67 68 68 70 71 72 74 75 76 77 77 77 76 75 73 73 72 72 73 75 78 80 82 85 87 88 89 89 89 89 90 91 93 94 95 94 93 91 88 85 81 79 77 76 75 75 76 78 80 82 84 84 85 85 85 86 87 88 89 90 90 89 88 85 84 83 82 83 83 84 85 88 90 91
73 73 72 71 70 70 71 70 69 69 68 68 68 68 69 69 70 71 72 74 76 76 77 77 76 75 74 74 73 73 74 76 78 80 82 85 87 89 90 90 89 87 86 84 84 86 89 92 93 93 92 87 82 78 75 74 74 75 76 79 81 83 83 84 84 85 87 88 88 89 91 91 90 89 87 85 84 83 82 82 83 84 86 89 91 93
77 76 75 74 73 73 73 72 71 71 71 70 70 69 69 69 70 70 71 73 74 76 76 76 76 75 75 74 74 75 77 78 79 81 82 85 86 88 89 89 88 86 84 81 77 76 76 81 86 90 93 90 85 80 76 74 74 76 78 80 82 84 84 84 84 86 87 89 90 90 90 90 89 88 87 85 84 83 82 81 82 84 86 89 91 93
79 78 78 77 76 75 75 75 74 73 73 73 72 71 70 70 70 71 71 72 73 75 76 76 76 75 75 75 76 77 79 80 81 81 82 84 86 87 87 88 87 85 82 78 74 70 68 71 76 82 88 89 87 83 79 76 76 77 80 82 84 85 86 85 85 87 88 90 91 91 91 91 90 89 88 86 84 82 81 81 81 83 86 88 91 93
80 79 79 79 78 77 77 77 76 76 75 75 74 72 72 71 72 72 71 72 73 74 76 76 76 76 76 77 77 78 79 80 81 81 82 84 85 86 87 86 85 83 80 77 73 69 65 65 69 76 84 87 89 87 82 78 78 79 81 84 85 87 87 86 87 87 89 90 90 90 90 89 89 88 87 86 84 82 81 81 81 83 85 88 90 93
82 81 80 80 79 79 79 79 78 78 77 76 75 74 73 73 73 73 73 73 73 74 75 76 77 77 79 79 79 79 80 81 81 81 82 84 85 86 86 86 84 82 79 76 73 69 66 62 65 72 83 87 88 86 82 79 79 81 82 84 86 88 88 88 88 88 89 90 89 88 87 86 85 85 85 85 84 83 81 81 82 83 85 88 90 92
83 83 82 81 81 81 81 81 80 79 79 78 76 74 74 74 74 75 75 75 75 75 76 76 77 78 80 80 80 79 80 81 82 82 82 84 85 86 86 85 83 82 79 76 73 71 68 64 63 65 70 76 79 79 78 79 80 82 84 85 87 88 88 88 88 88 88 88 87 86 84 83 83 84 85 86 85 84 83 83 83 84 86 88 90 92
Wind_Speed
14 13 13 14 15 15 16 16 16 16 17 18 18 19 20 20 20 20 21 21 22 22 23 23 23 23 22 22 23 22 22 21 21 21 22 22 23 23 24 25 25 25 25 25 25 24 24 24 23 23 23 23 23 22 22 21 21 21 20 20 19 19 19 20 20 20 21 21 21 21 21 22 22 21 21 22 22 22 23 24 24 25 25 26 26 26
13 12 12 12 13 14 16 16 17 17 18 18 17 17 16 15 15 15 17 18 19 20 20 20 20 19 19 19 19 19 19 19 19 20 21 22 23 24 25 25 25 25 25 25 25 24 24 23 23 23 23 22 22 21 21 20 20 20 19 19 19 19 19 19 19 19 20 20 20 20 21 22 22 23 23 23 23 23 24 24 25 25 25 26 26 26
13 13 12 11 11 12 14 14 15 16 17 16 14 13 12 12 13 15 16 16 16 16 16 16 17 17 17 17 17 17 18 18 19 20 21 22 23 24 25 25 24 24 24 24 23 23 23 23 22 22 21 21 20 20 20 19 19 19 18 18 18 18 18 18 18 18 18 19 19 20 20 21 22 22 23 23 23 24 24 24 25 25 25 26 26 27
13 14 14 14 13 13 13 12 12 12 13 13 12 12 12 14 15 17 17 17 16 15 16 16 16 16 16 17 17 17 18 19 20 21 22 23 23 24 24 24 24 23 22 22 22 21 21 21 21 20 20 19 19 19 19 19 18 17 17 17 17 17 17 17 17 17 18 18 18 19 19 20 21 21 22 22 23 23 24 24 24 25 25 26 26 27
14 14 15 15 15 15 13 12 11 11 11 11 11 12 13 14 16 16 17 16 16 16 16 15 15 16 16 17 17 18 19 19 20 21 22 22 23 23 23 23 22 21 21 20 20 20 20 20 20 19 19 18 18 18 18 18 17 16 16 15 15 16 16 16 16 17 17 18 18 18 19 19 20 20 21 21 22 23 23 24 24 25 25 26 26 27
14 14 15 15 15 15 14 13 12 12 12 12 12 12 13 13 14 14 15 14 14 15 15 15 15 15 16 17 18 18 19 19 20 21 21 21 22 22 21 21 20 20 19 19 19 20 20 20 19 19 18 18 17 17 17 17 16 16 15 15 15 15 16 16 16 17 17 17 17 18 18 19 19 20 21 21 22 23 23 24 24 25 25 25 26 26
15 14 15 15 15 15 15 15 14 13 13 13 13 13 13 13 13 13 14 14 14 14 15 15 15 16 16 17 18 18 18 19 19 19 19 20 20 20 20 19 19 18 18 19 19 19 19 19 19 18 18 17 17 17 16 16 16 15 15 15 15 15 15 16 16 16 16 16 17 17 18 19 19 20 21 22 22 23 23 23 24 24 24 24 25 25
15 15 14 15 15 16 15 15 15 14 13 14 14 14 14 14 14 14 14 15 15 15 15 15 15 15 15 16 17 17 18 18 18 18 18 19 19 19 19 18 18 18 19 19 19 19 19 18 18 17 17 17 16 16 16 15 15 14 14 15 15 15 15 15 15 15 15 16 17 17 18 19 20 20 21 21 22 22 22 22 23 23 24 24 25 25
15 15 15 14 14 15 16 15 14 13 13 14 14 14 14 15 16 17 17 17 16 15 15 14 14 14 14 15 16 17 17 17 18 18 18 19 19 19 18 18 18 18 19 19 19 18 18 17 16 16 15 15 15 15 14 14 14 14 14 14 14 14 14 14 14 14 15 16 17 18 18 19 19 20 20 21 21 21 21 22 23 23 24 25 25 26
14 14 14 14 14 14 14 15 15 13 13 13 13 14 14 15 17 18 18 18 16 14 12 12 13 14 15 16 16 17 17 18 18 18 18 19 19 19 18 18 18 18 18 18 18 17 17 16 15 14 14 13 13 13 13 13 13 13 12 12 12 12 12 13 13 14 15 16 17 18 18 19 19 19 20 20 21 21 22 22 23 24 24 25 26 26
13 13 14 14 14 14 13 14 14 13 13 13 14 15 15 15 16 17 18 16 14 12 11 11 13 14 17 17 17 16 16 17 18 18 18 18 18 18 17 17 16 16 17 17 16 16 15 15 14 13 12 12 12 12 12 12 11 11 11 11 11 11 12 12 13 14 15 16 17 17 18 18 19 19 20 20 21 21 22 23 23 24 25 25 25 25
13 13 13 14 14 14 14 14 14 14 14 14 14 14 15 15 14 14 14 13 13 13 13 14 15 16 17 17 17 16 16 16 17 18 18 18 17 16 16 15 14 14 14 14 13 13 13 12 12 12 12 12 12 12 11 11 10 10 9 10 10 11 11 12 13 14 15 16 16 17 17 18 19 19 20 20 21 22 22 23 24 24 24 25 25 25
14 14 14 14 14 14 14 14 14 14 13 12 11 11 12 13 13 13 12 13 13 14 15 17 17 17 17 16 16 16 16 16 17 18 18 17 16 16 15 14 13 12 12 12 12 12 11 11 11 11 11 11 11 11 10 9 9 8 8 9 10 11 12 13 14 14 15 15 16 17 17 18 19 20 20 21 21 22 23 23 23 24 24 24 24 25
13 13 12 12 12 12 13 14 13 12 11 11 11 12 13 14 14 14 14 15 15 16 16 17 18 18 17 16 15 15 16 16 16 17 16 16 16 16 15 14 13 12 12 12 12 12 12 12 11 11 11 10 10 9 8 7 7 8 8 9 10 11 12 13 14 14 15 15 16 17 18 19 19 20 21 21 22 22 23 23 23 23 23 24 25 25
12 13 13 12 12 13 14 14 14 13 12 13 13 15 16 16 15 14 14 15 16 16 16 17 18 18 16 14 14 14 14 15 15 15 15 15 15 16 16 15 14 13 12 12 12 12 12 12 11 11 10 9 8 7 7 7 7 9 10 10 11 12 12 13 13 14 15 15 16 17 18 19 19 20 21 21 22 22 22 22 22 23 23 24 24 24
13 13 12 12 13 14 15 16 15 15 15 16 16 15 15 15 14 14 14 14 14 15 14 15 15 14 13 11 11 11 13 14 14 14 15 15 16 16 17 16 15 13 13 13 13 12 12 12 11 11 10 8 6 6 7 9 10 10 11 11 12 12 13 13 13 14 14 15 16 17 18 19 20 20 21 21 21 22 22 22 22 23 23 23 23 21
13 12 12 13 13 14 16 16 16 16 16 16 15 14 14 13 13 13 12 13 13 13 12 12 10 8 8 10 11 12 15 16 17 17 17 17 18 19 18 17 15 14 14 14 14 13 12 12 11 11 9 7 5 6 9 11 11 12 11 12 12 12 12 13 13 14 14 15 17 18 18 19 20 20 20 21 21 21 22 22 23 24 23 22 22 21
13 13 13 13 14 14 16 16 15 14 13 13 13 14 14 14 14 14 14 14 13 13 13 13 11 9 8 9 12 15 18 19 20 19 18 18 19 20 20 17 15 15 15 15 14 13 12 11 11 9 7 6 7 8 10 11 12 12 12 12 12 12 12 13 13 14 15 16 17 18 19 19 20 20 20 21 21 21 21 22 23 23 24 23 22 22
13 13 13 14 15 15 14 13 12 13 14 15 16 15 14 14 14 14 14 13 13 13 14 14 14 13 13 15 17 19 20 21 20 18 17 17 18 19 18 15 13 14 15 15 14 13 12 12 10 8 6 6 7 9 10 10 11 11 12 12 12 12 12 13 13 14 15 16 17 18 19 19 19 20 20 20 20 20 20 20 21 22 23 23 23 23
13 13 13 14 15 14 13 13 14 16 17 17 16 14 13 13 13 13 13 14 14 14 14 15 15 15 16 18 19 20 21 20 19 17 16 16 17 17 15 13 13 13 14 15 14 14 13 11 9 7 5 5 6 7 9 10 11 11 12 12 12 12 12 13 13 15 16 17 17 18 19 19 19 20 20 20 20 19 19 20 20 21 22 22 22 22
14 14 14 17 17 15 14 15 17 18 18 18 16 14 13 13 13 14 14 15 15 16 16 16 16 17 18 19 20 21 21 20 18 16 15 15 15 15 13 12 12 12 14 14 14 14 12 10 8 6 5 6 7 9 11 11 11 11 11 11 12 12 12 13 14 15 16 17 17 18 18 19 19 19 19 19 19 19 19 19 20 20 21 21 21 22
15 16 18 20 19 18 18 18 19 19 19 18 16 14 14 14 14 15 16 16 17 17 17 17 18 19 19 20 21 22 22 21 19 17 14 13 14 14 11 10 11 12 14 14 14 13 11 8 6 6 6 8 10 11 12 11 11 11 11 12 12 13 13 14 15 16 16 17 17 18 18 18 19 19 19 19 19 19 19 19 19 20 20 20 21 22
15 17 19 19 19 19 20 20 20 19 18 17 16 15 15 15 16 17 17 17 18 18 18 19 20 20 20 20 21 22 22 21 20 17 13 10 9 9 9 10 12 14 14 14 13 11 9 7 7 7 8 10 11 12 12 11 11 11 12 13 13 14 14 15 15 16 16 17 17 17 18 18 18 18 18 18 18 18 19 19 19 19 19 20 21 22
16 17 18 17 18 18 18 18 18 18 18 17 16 16 16 17 17 17 18 17 17 17 18 18 19 18 18 18 18 18 16 15 14 13 11 8 8 9 11 13 14 14 14 15 14 13 12 11 10 11 11 12 12 12 11 10 11 12 13 13 14 14 15 15 15 16 16 16 17 17 17 18 18 18 18 18 18 18 19 19 19 19 19 20 21 21
16 16 16 16 16 16 16 16 16 15 15 15 15 16 16 16 15 15 15 15 16 16 16 16 15 14 15 15 14 12 12 15 17 16 13 10 10 12 14 15 15 15 15 17 18 17 16 15 14 13 13 12 12 11 10 10 11 12 13 13 14 14 15 15 16 16 16 16 17 17 17 17 18 18 18 18 18 18 18 19 19 19 19 20 20 21
15 15 15 15 15 14 14 13 13 13 13 13 13 13 13 13 13 13 14 14 15 15 14 13 12 12 14 14 12 11 13 19 23 21 17 13 12 12 13 15 16 14 14 17 19 18 17 15 15 14 12 12 11 10 10 10 10 11 12 13 14 15 15 15 16 16 16 16 17 17 17 17 17 18 18 18 18 18 19 19 19 19 19 19 20 20
14 14 14 14 13 13 12 12 12 12 12 13 13 13 12 12 13 12 12 13 14 14 13 11 10 11 13 13 12 11 14 19 23 23 21 16 11 10 11 15 15 14 14 15 16 16 14 13 13 12 11 11 10 10 10 11 11 12 13 14 14 14 15 15 16 16 16 16 17 17 17 17 17 17 18 18 18 19 19 19 19 19 19 19 18 19
14 14 14 14 13 13 13 13 13 14 14 15 15 15 15 14 13 12 12 13 14 14 13 12 11 10 11 12 11 11 14 16 19 22 22 16 12 10 11 14 15 14 14 14 14 14 12 11 11 11 10 10 11 11 11 12 12 13 13 13 14 14 15 15 15 16 16 17 17 17 17 17 17 18 18 18 19 19 19 19 19 19 18 17 17 18
15 15 15 15 14 14 14 14 15 15 15 16 16 16 16 16 14 13 13 14 14 13 13 13 12 12 12 13 12 11 12 14 17 21 21 16 12 11 13 14 14 14 14 14 14 13 11 11 10 11 11 11 12 13 13 13 13 13 13 13 13 14 15 15 16 16 17 17 17 17 17 17 18 18 18 19 19 19 20 19 19 19 18 17 16 17
16 15 15 15 15 15 15 15 15 15 15 15 15 16 16 16 15 14 14 14 14 13 13 13 13 13 13 13 11 9 9 12 16 19 19 15 12 12 14 15 15 15 14 13 11 9 10 11 11 11 12 13 13 14 14 14 13 13 13 13 13 14 14 15 16 17 17 17 17 17 17 18 18 18 19 19 20 20 20 19 19 18 17 17 16 17
15 15 15 15 15 15 15 16 15 15 15 15 15 15 15 15 15 14 14 14 13 13 12 12 12 13 13 11 8 5 6 11 16 18 18 15 12 13 14 14 15 15 14 12 7 4 6 10 12 13 13 14 14 14 14 13 13 12 12 13 13 14 15 16 17 17 17 17 17 17 18 18 18 19 19 20 20 20 19 19 19 18 17 17 17 17
14 14 14 14 14 15 15 15 15 14 14 15 14 14 14 14 14 14 14 14 13 12 12 12 12 13 13 11 8 6 7 12 15 17 18 15 14 14 14 14 15 15 14 13 10 7 4 6 11 14 15 15 15 15 14 13 12 12 13 13 14 15 15 16 17 17 17 17 17 17 18 18 18 19 19 20 20 19 19 19 18 18 17 18 18 17
13 14 14 13 13 13 14 14 14 14 14 14 14 14 14 14 13 13 13 13 13 12 12 12 12 12 13 12 11 10 11 13 15 17 18 16 14 14 14 14 15 15 15 14 13 11 8 9 11 14 15 15 15 15 14 13 13 13 14 15 15 16 17 17 17 17 17 17 18 18 18 18 18 19 19 19 20 20 19 19 19 18 17 17 17 17
14 14 13 12 12 12 13 14 14 14 15 15 15 14 14 14 14 13 13 13 13 12 12 12 12 12 12 12 12 12 13 14 16 17 18 16 14 14 14 14 15 15 15 14 14 13 12 12 13 14 14 15 15 14 13 14 14 15 15 15 16 16 17 17 17 17 17 17 18 18 18 18 19 19 20 20 21 21 20 20 19 18 17 16 16 16
13 13 13 12 12 13 13 14 15 15 15 15 15 15 15 15 14 14 14 14 14 13 13 12 12 11 11 11 12 13 14 15 17 18 18 17 15 14 14 13 14 14 14 14 13 13 12 13 14 14 13 13 13 13 13 14 15 16 16 16 16 16 16 17 17 17 17 17 17 18 18 19 19 20 21 22 22 21 21 20 19 17 16 15 14 14
12 12 12 12 13 13 14 14 15 15 15 16 16 16 15 15 15 15 15 15 15 15 14 13 12 12 12 12 12 13 15 17 18 18 18 18 16 14 12 12 13 14 14 13 13 12 12 12 13 14 13 12 11 12 14 15 16 16 16 16 16 16 16 16 16 16 16 17 17 17 18 19 19 21 22 22 22 21 20 19 18 16 15 15 14 14
11 12 12 13 13 13 14 14 14 15 15 16 16 16 16 16 16 16 16 16 16 16 15 14 14 13 14 14 15 15 16 17 18 18 18 19 18 15 12 12 13 13 13 13 12 12 12 12 12 12 12 11 10 11 14 16 17 17 17 17 17 16 16 16 16 16 16 16 17 17 18 19 20 21 22 23 22 21 20 18 17 16 15 15 15 14
11 11 12 13 13 13 13 14 14 15 15 15 16 16 16 16 16 17 16 16 15 16 16 16 15 15 14 14 14 15 15 16 17 17 18 19 19 17 13 13 13 13 12 12 12 12 11 10 9 9 9 10 11 13 14 16 17 17 17 17 17 16 16 16 16 16 16 16 17 17 18 19 20 21 22 22 22 21 20 19 18 17 16 16 16 15
11 11 12 12 13 13 13 14 14 14 14 15 15 15 16 16 17 17 16 16 15 15 15 16 16 16 15 14 13 12 13 15 16 16 17 18 19 17 15 13 13 13 13 13 12 12 11 10 9 8 9 10 12 14 15 15 16 17 17 17 17 16 16 16 16 16 15 16 17 18 19 20 20 21 21 21 20 20 19 19 19 18 18 17 17 16
11 11 12 12 12 12 13 13 13 14 14 14 15 15 16 17 18 18 18 17 16 16 16 16 16 15 14 13 12 11 12 14 15 15 16 17 18 17 15 14 14 14 14 14 13 12 11 11 11 12 12 12 13 14 15 15 16 16 17 16 16 16 17 17 16 15 15 16 17 18 19 20 20 20 20 20 20 19 19 19 19 19 18 17 17 16
11 11 12 12 12 12 13 13 13 13 14 14 15 16 17 18 18 19 19 18 18 18 18 18 17 16 15 13 12 13 14 15 15 15 16 17 17 16 16 15 14 14 14 14 13 12 12 12 12 13 14 14 14 15 15 15 16 16 16 15 15 16 17 16 15 15 16 17 18 18 19 19 19 20 20 20 20 19 19 19 19 18 18 16 16 16
12 12 12 12 12 13 13 13 13 13 14 14 15 16 17 18 18 18 18 18 18 18 18 18 18 17 16 15 14 14 15 16 16 16 16 17 17 17 16 15 14 14 14 13 12 12 12 12 12 12 13 14 14 14 14 15 15 15 14 14 16 17 17 16 16 16 17 18 18 19 19 19 19 20 20 20 20 19 19 18 18 17 17 16 15 15
12 12 12 12 12 13 13 13 14 14 14 15 15 16 17 18 18 18 18 18 18 18 18 18 17 17 16 16 16 16 16 17 16 16 16 17 18 18 18 17 17 16 14 13 12 12 12 12 12 12 13 13 14 14 14 14 15 15 15 15 16 15 14 16 17 18 18 18 18 19 19 19 20 20 20 20 19 18 18 18 17 17 16 16 15 15
12 12 12 12 12 13 14 14 14 14 14 15 15 16 16 17 17 17 17 17 17 17 17 18 17 16 16 16 16 17 17 17 17 17 17 17 17 18 19 19 18 17 16 14 13 13 13 12 12 12 12 13 13 13 13 14 14 15 16 16 15 14 13 15 17 18 18 18 19 19 19 20 20 20 20 19 19 18 18 18 17 17 16 16 16 16
12 12 12 12 13 13 14 15 15 15 15 14 15 15 16 17 17 17 17 17 17 17 17 17 17 16 15 16 16 17 17 18 18 18 17 18 18 19 19 19 19 19 18 16 15 15 14 12 12 12 12 12 12 12 13 14 15 16 16 16 16 15 15 15 16 17 18 18 19 20 20 21 21 20 19 19 19 19 18 18 17 17 16 16 16 16
12 13 13 13 13 14 14 14 15 15 15 15 15 15 16 17 17 17 17 17 16 17 17 17 16 15 15 15 16 17 17 18 18 18 18 19 19 20 20 19 19 19 19 18 17 16 15 14 14 13 12 12 12 12 12 14 15 16 17 17 17 16 16 15 16 16 17 18 19 20 21 21 20 19 18 18 19 19 19 18 17 17 16 16 17 17
13 13 13 13 13 13 14 14 15 15 15 15 15 15 16 17 17 17 17 17 16 16 16 16 16 15 15 15 16 16 16 17 18 18 19 19 20 20 20 20 19 19 19 18 18 17 16 15 14 13 12 11 10 12 13 14 15 16 16 17 17 16 16 16 16 17 17 17 18 20 21 21 20 19 19 19 19 19 19 18 17 17 16 17 17 17
13 13 13 13 13 14 14 14 15 15 15 15 15 16 16 16 17 17 17 17 17 16 16 16 16 16 16 16 16 16 16 16 16 17 18 19 20 20 21 20 20 20 19 19 18 17 16 14 13 11 9 8 9 11 13 15 15 16 16 16 16 16 16 16 17 17 17 18 19 20 20 19 19 18 19 19 19 19 19 19 18 17 17 17 18 18
13 13 13 13 14 14 14 14 15 15 15 15 15 16 16 16 16 16 16 16 16 16 16 16 16 16 15 16 16 16 16 16 16 17 17 18 19 20 20 21 21 20 20 19 19 18 17 15 12 9 7 6 7 9 12 14 16 16 16 15 15 15 16 16 17 18 18 19 20 20 20 18 18 18 18 18 18 19 19 19 19 18 18 18 19 19
12 12 13 13 13 14 14 14 15 15 15 15 15 16 16 16 16 16 16 16 16 16 15 15 15 15 15 15 16 16 16 16 16 16 17 18 18 19 20 20 21 21 20 20 19 19 18 16 13 10 8 6 7 8 11 14 16 17 17 16 15 15 16 16 17 18 19 20 20 20 19 19 18 18 17 17 18 18 19 19 19 19 19 20 20 20
11 12 12 13 13 14 14 14 14 15 15 15 15 15 16 16 16 17 17 16 16 16 15 15 15 15 14 15 15 16 16 16 16 16 17 17 18 19 19 20 20 20 19 18 18 17 16 15 13 11 10 9 9 10 12 14 16 17 17 17 16 16 16 17 18 19 19 19 19 19 19 18 18 17 17 17 17 18 18 19 20 21 21 21 21 21
Wind_Direction
286 284 278 276 274 272 270 268 267 266 266 266 268 269 272 274 275 277 278 279 281 284 287 288 290 291 292 293 293 291 289 287 287 288 289 290 291 292 293 293 293 293 293 293 293 292 291 291 289 288 287 287 287 289 290 291 290 289 288 288 290 293 296 297 297 297 296 296 295 295 295 298 302 305 306 306 305 303 301 301 301 301 300 299 298 297
292 289 284 280 276 272 269 269 267 266 267 268 268 269 270 271 272 274 276 279 282 285 287 288 288 289 289 288 286 283 280 279 280 283 286 288 291 293 293 293 293 293 293 293 293 292 291 290 289 288 287 287 288 289 290 289 288 287 286 288 290 292 294 295 295 295 295 295 295 295 296 298 300 301 302 303 303 302 301 300 300 299 299 298 297 297
296 294 292 289 280 272 270 269 267 265 265 266 265 263 262 264 266 270 273 277 279 280 280 280 281 282 281 279 277 276 276 277 279 282 285 289 291 292 293 293 293 293 293 293 292 292 291 290 288 288 287 287 288 288 288 286 286 285 286 288 291 292 293 293 294 294 295 295 296 297 298 299 299 300 301 302 302 301 301 300 299 298 298 298 298 298
295 295 295 295 290 283 277 275 273 271 268 266 264 262 262 265 268 272 275 277 277 275 276 276 277 277 277 277 277 277 278 280 281 284 286 289 290 291 291 292 292 292 293 292 292 292 292 291 289 288 287 287 287 286 285 284 284 286 289 291 292 293 293 293 293 294 294 296 296 297 298 299 300 301 301 302 302 301 301 300 299 299 299 298 298 298
293 293 294 295 295 293 291 289 288 286 281 274 269 267 266 267 269 272 275 275 274 274 275 275 276 276 278 279 280 280 280 281 282 283 285 287 288 289 290 291 291 291 292 292 293 294 294 293 291 289 288 286 285 284 283 284 285 288 290 292 292 291 291 291 292 293 294 295 297 298 299 300 301 301 302 302 302 302 302 302 301 300 300 299 298 297
292 292 293 294 293 294 295 294 293 291 288 281 275 271 269 268 269 270 271 272 273 274 275 275 276 277 280 281 282 282 281 281 282 283 285 287 289 290 291 291 291 291 291 292 294 295 295 294 292 290 288 286 284 284 284 285 287 288 289 290 290 290 290 290 291 292 294 296 298 299 300 301 301 302 302 303 303 303 302 302 302 300 299 299 298 298
292 292 293 292 291 290 291 290 289 287 285 284 282 280 276 273 271 271 272 273 274 276 277 277 278 279 281 282 284 285 285 286 287 288 290 292 293 293 294 293 292 292 292 293 294 294 294 292 290 288 286 284 283 284 284 286 287 287 288 288 288 288 289 290 291 293 296 297 299 300 301 301 302 302 303 303 303 303 303 302 301 301 301 301 301 301
294 294 294 293 292 291 289 287 285 285 285 285 285 285 283 280 278 277 278 278 278 279 279 280 281 282 283 286 288 291 292 294 295 297 297 297 297 296 296 294 293 292 292 293 293 294 293 291 289 286 284 282 282 283 284 285 285 285 285 285 286 287 288 290 292 295 297 298 299 300 301 302 303 303 304 304 304 304 303 303 302 303 304 304 304 303
293 295 295 292 292 292 291 290 288 287 288 287 286 286 287 286 286 285 284 282 281 281 282 285 287 288 289 291 294 296 297 299 299 300 299 298 297 296 295 294 293 292 291 291 291 291 291 290 288 286 283 282 281 281 282 283 283 283 284 284 285 286 288 291 294 296 298 299 300 301 303 304 304 305 305 305 305 305 305 304 304 305 304 304 303 302
290 292 294 293 290 289 290 291 293 294 294 293 291 289 289 290 291 291 290 287 286 286 288 291 294 296 297 298 298 299 301 301 301 300 299 297 296 295 293 292 291 290 290 290 289 289 289 289 288 286 284 282 281 281 281 281 281 282 283 284 285 287 290 293 296 298 299 300 302 303 304 305 305 306 306 306 307 306 306 306 305 304 303 302 302 301
290 290 291 293 293 291 290 292 298 304 306 305 300 294 290 290 292 294 295 295 296 298 300 299 298 299 301 302 303 304 304 304 303 301 299 297 295 294 293 292 291 291 291 291 290 290 290 289 287 284 283 283 283 283 282 281 281 282 282 284 286 289 293 296 298 299 301 302 304 305 306 306 307 307 307 307 307 306 306 305 304 303 303 302 302 302
293 294 295 297 299 301 302 305 308 312 314 312 307 301 298 299 300 302 303 305 308 309 307 304 301 301 302 305 308 309 309 307 304 302 300 298 297 295 295 294 294 295 296 296 295 294 292 290 285 280 280 281 283 283 282 281 281 282 283 286 290 294 297 298 299 301 302 304 305 306 306 307 307 307 307 307 306 306 305 305 304 304 303 303 302 301
303 306 308 310 312 315 319 322 323 323 322 320 316 314 315 318 319 317 311 308 308 309 308 306 305 304 305 308 310 312 310 307 304 301 299 298 297 296 295 295 296 298 300 300 300 299 297 294 287 281 277 277 278 278 278 278 280 283 286 290 294 297 299 300 301 302 303 304 306 307 307 308 308 308 307 307 307 306 306 305 305 304 304 303 302 301
325 328 329 329 331 333 334 334 333 331 332 333 330 325 322 321 320 316 310 305 305 307 307 306 305 305 306 307 307 307 306 304 301 299 298 297 296 294 293 293 295 298 300 300 300 300 300 299 293 286 279 275 273 273 272 274 278 284 289 293 297 299 300 301 303 304 305 306 307 308 308 308 308 308 308 308 308 307 306 305 305 304 304 303 302 302
339 338 335 334 334 334 333 333 332 331 330 329 324 319 316 313 311 310 308 307 309 312 312 308 305 303 302 302 303 304 305 304 303 304 303 301 298 296 295 295 297 299 301 300 300 301 302 300 295 289 284 279 275 272 270 274 281 288 293 296 298 300 302 303 304 305 306 307 308 309 309 309 309 309 309 309 308 307 306 305 304 304 303 304 306 309
332 331 327 324 324 324 323 323 321 318 316 315 314 312 311 312 314 317 317 319 323 325 325 320 313 308 305 305 309 315 318 318 319 319 317 312 308 305 303 303 305 305 304 302 302 302 302 299 295 291 288 285 282 279 277 284 291 296 298 299 300 302 302 304 305 306 307 309 310 309 310 310 310 310 310 309 309 308 306 305 304 304 306 309 314 320
323 322 319 318 317 316 316 313 310 308 310 314 317 321 325 330 335 339 341 342 343 343 339 333 327 320 319 323 329 333 333 332 331 329 326 319 314 312 310 311 312 311 308 304 302 300 299 297 293 291 289 290 289 289 292 297 300 302 301 301 301 302 303 304 306 308 309 310 310 310 311 311 311 311 311 310 309 308 307 307 306 308 312 318 325 331
322 320 317 315 313 312 312 312 313 318 327 337 345 350 352 353 352 351 350 350 349 346 340 334 329 324 324 325 327 328 328 327 326 324 320 315 312 312 313 313 311 309 306 303 300 298 295 292 289 287 286 287 290 294 299 302 303 303 302 302 302 302 303 304 306 308 310 310 311 311 311 312 312 312 312 311 310 309 309 308 309 312 317 323 328 331
327 325 323 321 319 319 321 328 339 350 356 359 358 355 352 350 349 347 344 343 340 335 329 324 319 315 313 310 311 313 315 315 314 312 309 305 303 305 307 306 304 302 300 298 296 294 291 288 284 281 279 283 290 297 301 302 302 301 301 302 303 303 303 305 307 309 310 311 311 312 312 313 313 312 312 311 310 310 310 310 311 313 317 321 324 325
332 332 334 335 335 335 341 354 3 2 358 353 350 346 341 341 340 339 336 333 329 324 320 315 311 307 305 304 304 305 307 306 304 300 297 293 294 295 295 294 295 295 292 290 289 288 288 286 282 278 278 286 294 299 300 299 299 299 300 302 303 304 305 307 309 310 311 311 312 312 313 314 314 313 313 312 311 311 311 312 313 314 315 317 318 320
331 333 339 344 345 344 344 348 349 349 347 344 341 339 337 338 337 335 331 328 323 320 316 312 307 304 302 300 299 301 302 299 293 288 287 286 286 286 285 286 287 287 285 285 286 288 287 286 282 280 286 296 300 300 299 299 299 299 301 302 304 305 307 309 310 311 312 312 312 313 314 314 314 314 313 313 313 313 313 313 313 313 313 314 315 316
329 330 334 337 338 337 334 335 337 339 340 340 339 337 336 335 333 329 326 323 318 315 311 307 303 300 298 296 295 297 298 292 284 278 281 282 281 281 283 290 293 292 289 289 290 292 293 293 292 295 302 304 304 302 301 299 298 299 302 305 307 308 310 311 312 312 312 313 314 314 315 315 314 314 314 314 314 314 314 313 313 313 313 313 314 315
327 326 328 329 329 328 328 328 330 333 335 336 335 333 331 328 324 321 318 314 311 309 306 304 302 300 297 294 294 296 297 292 284 280 282 282 283 290 305 316 315 309 304 305 308 311 316 319 320 318 314 309 306 303 302 300 298 299 304 308 311 312 312 313 313 313 314 314 315 316 316 315 315 314 314 314 314 314 314 314 313 313 313 314 314 314
327 326 326 326 326 324 323 324 325 327 330 331 330 328 325 321 317 314 312 310 309 309 308 306 305 303 301 300 299 301 306 311 315 315 311 306 314 329 341 343 338 331 327 329 334 339 341 337 329 321 314 310 308 306 304 301 300 302 308 311 313 313 314 314 315 315 316 316 316 317 316 315 315 314 314 314 314 315 315 314 314 314 314 314 314 314
332 331 330 328 328 327 325 325 326 328 329 330 328 325 323 321 319 318 317 319 320 320 318 313 310 310 313 314 314 321 341 0 6 3 354 343 341 347 354 357 355 350 343 345 348 347 342 334 325 318 312 310 310 310 309 305 304 306 310 312 313 314 315 316 316 317 317 317 317 317 316 315 315 315 314 314 314 315 315 315 315 315 315 315 314 313
341 340 339 338 337 337 337 337 338 340 342 341 339 336 335 336 336 335 336 339 339 336 331 324 322 325 327 327 331 348 12 18 18 16 9 358 349 349 357 358 357 352 342 343 344 343 336 326 319 314 311 310 312 314 314 311 309 310 312 313 314 316 317 317 318 318 318 318 318 317 316 315 315 314 314 314 315 315 315 315 315 316 315 315 314 313
353 353 353 353 353 354 356 359 1 3 4 5 5 5 4 4 359 354 354 352 349 345 341 337 335 336 338 338 347 7 22 18 14 11 7 359 350 347 351 352 348 343 336 335 336 335 328 319 313 311 311 313 316 318 318 316 315 314 315 316 317 318 318 319 319 319 319 319 318 316 316 315 315 315 315 315 315 315 316 316 316 316 316 316 315 313
4 4 4 6 8 10 13 16 18 19 20 21 21 22 24 21 14 6 1 356 353 350 349 348 347 346 346 345 352 10 21 17 10 6 4 357 348 341 342 342 340 337 334 331 330 329 325 320 318 318 320 323 324 324 322 320 319 319 319 320 320 321 321 321 321 320 320 319 318 317 316 316 316 316 316 317 316 316 316 317 317 317 317 317 315 313
10 10 10 13 16 19 22 24 26 27 27 26 25 26 27 25 21 11 3 358 356 355 354 354 353 350 347 344 346 358 12 13 7 2 0 354 345 337 336 336 336 336 335 332 331 331 330 329 330 331 332 331 330 327 324 323 322 321 321 322 323 323 324 323 323 322 321 319 318 318 318 318 318 318 318 318 318 317 317 318 319 319 318 317 314 312
10 10 14 17 22 25 27 28 28 27 26 24 23 23 23 23 20 14 7 3 1 359 356 355 353 351 347 344 343 348 359 2 0 359 357 353 343 335 334 334 335 336 338 336 334 332 331 331 332 333 333 331 329 326 325 324 323 323 323 324 325 326 326 326 325 324 322 321 320 320 320 320 321 320 320 320 319 319 319 320 321 321 319 317 315 312
6 10 16 22 26 28 29 27 25 23 21 19 19 18 17 17 16 14 10 7 4 1 358 355 354 352 350 349 345 344 348 350 353 355 356 351 340 333 333 333 334 336 339 340 337 329 325 327 328 330 331 331 329 327 326 326 327 328 329 330 330 330 329 328 327 326 324 323 322 322 322 322 322 322 321 321 321 320 321 322 323 323 321 318 315 312
7 16 24 27 28 27 26 23 21 17 15 14 14 13 13 12 12 11 10 8 5 1 358 355 353 352 352 351 347 340 339 342 346 350 353 348 339 332 332 331 331 333 336 338 335 328 319 321 325 328 331 332 331 331 331 333 336 339 340 339 336 334 331 330 328 327 325 324 324 324 323 323 323 323 322 322 322 323 323 324 325 324 322 319 316 313
20 29 30 29 26 24 22 19 16 14 12 11 10 10 9 8 8 8 7 6 3 0 357 354 351 349 348 346 343 339 337 340 343 346 349 347 339 332 330 329 330 331 333 335 334 330 324 321 324 327 330 332 332 333 336 342 347 349 347 344 339 334 331 330 328 327 325 325 325 325 325 325 324 324 323 324 325 326 327 327 327 326 323 320 318 316
34 35 31 26 22 19 17 15 14 12 11 9 7 6 5 4 4 3 2 2 1 358 355 351 347 344 343 342 339 337 336 338 341 343 346 346 341 332 329 329 331 332 334 335 335 334 330 328 328 329 329 330 332 335 341 347 349 348 345 341 336 333 330 329 327 326 326 326 326 326 326 326 325 325 325 327 328 330 329 329 328 328 326 324 322 320
38 34 27 22 18 15 14 12 11 10 9 7 5 3 1 360 358 357 355 355 355 354 351 345 340 337 335 335 334 332 331 333 338 343 346 347 342 334 330 330 332 334 335 335 336 336 333 332 331 330 329 329 331 336 341 344 343 341 338 335 332 330 328 327 326 326 327 328 328 328 328 327 326 326 327 329 331 332 332 331 330 330 329 328 326 323
35 29 24 19 15 14 12 10 8 7 6 5 3 1 358 356 354 351 349 348 348 348 345 341 335 330 327 325 324 323 325 331 338 344 347 349 346 339 332 330 332 334 334 334 335 335 333 330 329 330 330 330 331 333 335 336 336 334 333 332 330 328 328 328 329 329 330 330 330 329 328 328 327 327 328 331 332 332 332 331 331 331 331 330 328 324
30 25 21 17 14 12 10 8 6 5 4 2 1 359 356 353 351 349 347 346 345 343 341 339 335 330 327 324 323 324 328 334 340 344 346 349 350 346 336 332 333 334 335 334 333 332 329 327 327 328 331 332 331 330 330 331 332 332 332 331 330 330 331 333 334 334 333 332 330 329 328 328 328 328 330 332 332 333 333 332 332 331 331 329 327 324
26 22 18 15 13 11 9 7 5 4 2 0 358 356 354 352 351 350 349 348 345 342 340 338 336 334 332 329 328 328 331 335 338 340 342 345 348 348 342 337 336 335 334 331 328 326 324 323 323 325 327 327 326 325 326 328 330 331 331 331 332 334 336 337 337 337 335 333 331 330 329 329 329 330 331 332 333 333 333 333 332 331 329 327 325 324
22 19 15 13 11 9 8 6 4 2 1 359 357 355 354 353 353 353 352 351 347 344 341 339 338 337 336 336 335 333 333 334 335 337 339 341 344 346 344 339 335 333 332 330 327 323 320 317 316 318 320 321 322 323 325 328 329 330 330 332 335 337 339 339 338 337 336 334 332 331 330 330 331 331 331 332 332 332 330 330 329 329 327 325 325 324
18 15 12 11 9 8 7 5 3 1 360 359 358 357 357 357 356 356 356 354 351 347 345 344 342 342 342 342 342 340 338 337 337 338 340 342 344 344 342 336 333 331 331 331 329 325 318 314 313 314 318 320 322 325 327 328 329 331 333 336 337 338 337 337 337 337 337 335 333 332 330 331 331 332 332 332 332 330 329 327 326 325 325 325 325 325
14 12 10 8 7 6 6 4 3 2 2 2 2 2 1 359 357 356 355 354 353 351 350 349 347 347 347 350 351 349 347 346 344 344 345 347 347 346 342 337 332 329 328 328 328 326 321 316 314 317 322 325 327 328 329 329 331 334 337 339 337 334 333 335 337 338 337 336 335 333 332 332 332 332 332 332 331 329 328 326 325 325 326 327 327 328
12 11 9 7 6 5 4 3 3 3 4 4 4 3 2 0 358 355 353 352 352 352 351 350 348 348 349 352 353 353 352 351 350 349 350 351 352 351 348 343 337 332 328 326 324 323 323 320 319 321 325 328 329 330 330 331 333 337 341 340 337 334 334 336 338 339 338 336 335 335 335 333 332 331 331 329 329 329 329 328 328 328 329 331 331 332
10 9 8 7 6 4 3 3 4 4 4 4 3 2 1 360 357 355 354 353 352 351 352 351 350 350 350 352 352 352 351 351 351 352 352 352 353 353 352 349 344 338 331 325 321 320 321 323 324 325 328 331 330 329 329 331 335 338 340 339 338 337 334 334 335 336 336 336 336 336 335 333 331 329 328 328 329 330 331 331 331 331 332 333 334 334
9 9 8 7 6 5 5 5 4 3 2 2 1 359 358 357 357 356 354 353 352 352 353 353 353 353 354 353 352 350 349 349 350 351 352 353 354 354 353 351 349 344 336 328 320 317 318 318 320 323 328 331 331 331 332 334 336 338 338 338 338 336 331 329 330 333 335 335 336 336 335 333 330 328 327 329 331 332 333 332 332 333 333 334 335 335
9 8 8 7 6 6 6 5 3 2 1 0 359 357 356 356 356 356 355 353 352 353 354 355 356 356 355 353 351 349 348 348 348 349 350 352 354 355 353 352 349 346 340 333 326 319 313 310 311 316 323 328 331 333 336 338 338 338 337 338 337 334 330 329 330 333 335 335 335 335 333 332 330 329 328 330 332 333 333 332 332 333 334 335 336 335
9 8 7 6 6 6 6 4 3 2 1 360 358 357 355 355 355 355 355 354 354 354 355 357 358 358 355 352 351 350 349 348 348 348 348 349 350 351 352 351 349 347 343 338 333 325 316 308 305 307 314 322 328 334 339 341 340 339 338 338 336 334 332 332 333 334 334 334 333 333 332 332 332 330 330 330 331 332 333 333 333 333 334 336 336 336
8 6 5 5 4 4 4 3 2 2 0 359 357 356 355 355 355 355 355 355 355 355 356 358 358 358 355 353 352 351 350 348 347 346 347 347 348 349 349 349 348 348 345 343 340 336 328 320 312 306 306 312 321 330 336 340 342 341 339 337 336 334 333 333 333 334 334 333 332 332 332 333 333 333 332 331 331 331 333 334 335 335 337 337 337 336
8 6 4 3 2 2 1 1 0 359 358 356 355 354 355 356 356 356 355 355 356 356 357 357 357 356 354 354 354 353 351 348 346 345 345 346 346 347 348 348 348 348 348 348 348 347 344 338 329 319 311 309 316 326 333 338 341 341 340 338 336 334 332 332 332 333 333 332 331 332 332 332 331 331 331 331 331 332 333 334 336 337 338 339 338 337
8 6 4 3 1 0 359 358 358 357 356 354 353 353 353 355 357 357 356 355 356 358 358 357 355 354 353 353 354 353 352 350 347 346 346 346 346 347 348 349 349 350 351 352 354 356 357 355 350 342 335 325 323 326 333 338 340 342 342 340 338 335 332 331 331 333 333 332 332 332 333 332 332 332 332 331 331 331 332 334 336 338 339 339 339 338
7 5 4 2 1 359 357 356 355 355 353 352 352 351 352 354 356 357 357 357 357 358 359 357 354 352 351 351 353 353 352 350 348 347 347 347 348 348 349 349 350 351 352 354 356 359 1 2 1 359 356 353 348 343 343 343 344 344 344 343 340 337 334 331 331 332 333 332 331 332 333 334 335 336 336 334 332 331 332 334 336 337 338 339 339 338
4 3 2 1 359 358 356 355 354 353 352 351 351 352 353 354 355 356 357 357 357 358 358 356 354 352 350 351 352 353 351 349 347 346 347 347 348 349 350 351 352 353 353 354 356 357 358 360 1 2 5 6 2 357 355 354 351 348 345 343 341 338 335 332 331 332 332 332 332 332 333 336 338 339 339 336 334 333 334 334 334 335 336 337 337 336